TimeEST,TemperatureF,Dew PointF,Humidity,Sea Level PressureIn,VisibilityMPH,Wind Direction,Wind SpeedMPH,Gust SpeedMPH,PrecipitationIn,Events,Conditions,WindDirDegrees,DateUTC
12:51 AM,39.9,19.9,45,30.01,10.0,SSE,12.7,-,N/A,,Clear,160,2013-02-19 05:51:00
1:51 AM,41.0,21.0,45,29.96,10.0,South,10.4,23.0,N/A,,Clear,180,2013-02-19 06:51:00
2:51 AM,42.1,21.0,43,29.92,10.0,South,9.2,-,N/A,,Mostly Cloudy,170,2013-02-19 07:51:00
3:51 AM,42.1,21.9,45,29.87,10.0,South,5.8,-,N/A,,Overcast,180,2013-02-19 08:51:00
4:51 AM,42.1,23.0,47,29.90,10.0,SSE,8.1,-,0.00,,Overcast,160,2013-02-19 09:51:00
5:30 AM,39.2,28.4,65,29.89,7.0,South,17.3,32.2,0.00,Rain,Light Rain,190,2013-02-19 10:30:00
5:51 AM,37.0,30.0,76,29.91,10.0,Variable,6.9,-,0.01,Rain,Light Rain,0,2013-02-19 10:51:00
6:51 AM,36.0,30.9,82,29.87,10.0,South,6.9,-,0.01,Rain,Light Rain,170,2013-02-19 11:51:00
7:51 AM,37.0,32.0,82,29.86,10.0,South,6.9,-,0.00,Rain,Light Rain,180,2013-02-19 12:51:00
8:51 AM,39.0,30.9,73,29.84,10.0,South,6.9,-,0.01,,Overcast,180,2013-02-19 13:51:00
9:33 AM,37.4,32.0,81,29.79,9.0,SSW,11.5,21.9,0.01,Rain,Light Rain,200,2013-02-19 14:33:00
9:51 AM,37.0,33.1,86,29.84,8.0,SSW,8.1,16.1,0.02,Rain,Light Rain,200,2013-02-19 14:51:00
10:05 AM,37.4,33.8,87,29.79,10.0,South,5.8,-,0.01,Rain,Light Rain,190,2013-02-19 15:05:00
10:51 AM,37.9,33.1,83,29.83,10.0,SSW,9.2,-,0.02,Rain,Light Rain,200,2013-02-19 15:51:00
11:41 AM,37.4,33.8,87,29.77,10.0,South,6.9,-,0.01,Rain,Light Rain,180,2013-02-19 16:41:00
11:51 AM,37.9,34.0,86,29.81,9.0,South,5.8,-,0.01,Rain,Light Rain,180,2013-02-19 16:51:00
12:36 PM,39.2,35.6,87,29.73,10.0,South,5.8,-,0.01,,Overcast,180,2013-02-19 17:36:00
12:43 PM,39.2,35.6,87,29.73,10.0,South,5.8,-,0.01,,Overcast,180,2013-02-19 17:43:00
1:23 PM,42.8,33.8,70,29.71,10.0,WSW,10.4,20.7,0.01,Rain,Light Rain,240,2013-02-19 18:23:00
1:43 PM,39.2,33.8,81,29.72,2.5,West,17.3,24.2,0.01,Rain,Light Rain,270,2013-02-19 18:43:00
1:46 PM,37.4,33.8,87,29.72,1.5,WSW,21.9,29.9,0.03,Rain,Heavy Rain,250,2013-02-19 18:46:00
1:51 PM,39.0,32.0,76,29.76,1.8,West,19.6,29.9,0.04,Rain,Light Rain,260,2013-02-19 18:51:00
1:54 PM,39.2,33.8,81,29.72,3.0,WSW,17.3,29.9,0.00,Rain,Light Rain,250,2013-02-19 18:54:00
2:51 PM,39.9,30.0,68,29.79,10.0,West,16.1,35.7,0.01,,Scattered Clouds,260,2013-02-19 19:51:00
3:51 PM,39.0,27.0,62,29.80,10.0,West,15.0,23.0,N/A,,Overcast,270,2013-02-19 20:51:00
4:51 PM,37.9,26.1,62,29.82,10.0,West,8.1,19.6,0.00,,Overcast,280,2013-02-19 21:51:00
5:51 PM,36.0,21.9,57,29.86,10.0,West,17.3,23.0,0.00,,Mostly Cloudy,270,2013-02-19 22:51:00
7:51 PM,33.1,19.0,56,29.93,10.0,WSW,13.8,21.9,N/A,,Overcast,250,2013-02-20 00:51:00
8:51 PM,32.0,16.0,52,29.94,10.0,WSW,16.1,25.3,0.00,Snow,Light Snow,250,2013-02-20 01:51:00
9:51 PM,30.9,16.0,54,29.96,10.0,West,11.5,19.6,0.00,,Overcast,270,2013-02-20 02:51:00
10:51 PM,28.9,18.0,64,29.97,7.0,West,17.3,25.3,0.00,Snow,Light Snow,280,2013-02-20 03:51:00
11:51 PM,27.0,18.0,69,29.99,6.0,West,9.2,21.9,0.00,Snow,Light Snow,280,2013-02-20 04:51:00